[[{"header":{"parameterUnit":"m.s-1","parameterCategory":1,"la1":30.2991,"la2":30.254,"lo1":-89.0895,"lo2":-89.0444,"dy":0.0017,"dx":0.0017,"nx":28,"ny":28,"refTime":"2025-07-31T03:00:00:Z","depth":0,"parameterNumber":2,"parameterNumberName":"U-component_of_WINDS"},"data":[0,0,0,0,0,0,0,0,0,0,0,0,0,0,0,0,0,0,0,0,0,0,0,0,0,0,0,0,0,0,0,0,0,0,0,0,0,0,0,0,0,0,0,0,0,0,0,0,0,0,0,0,0,0,0,0,0,0,1.9782,1.9783,0,1.9853,1.9854,1.9855,1.9852,1.9851,1.985,1.9849,1.9926,1.9929,1.9932,0,0,0,0,0,0,0,0,0,0,0,0,0,1.9648,1.965,1.9782,1.9783,1.9784,1.9853,1.9854,1.9855,1.9852,1.9851,1.985,1.9848,1.9925,1.9929,1.9932,0,0,0,0,0,0,0,0,0,0,0,0,0,1.9711,1.9651,1.9782,1.979,1.9792,1.9853,1.9854,1.9855,1.9852,1.9851,1.9849,1.9848,1.9924,1.9929,1.9933,1.9991,0,0,1.9947,1.9949,0,0,0,0,0,0,0,0,1.9708,1.9716,1.9788,1.979,1.9792,1.9842,1.9835,1.9901,1.9853,1.9829,1.9849,1.9847,1.99,1.9906,1.9923,1.9995,1.9998,1.9947,1.995,1.9952,1.9953,0,0,0,0,0,0,0,1.9703,1.9713,1.981,1.9789,1.9791,1.9792,1.98,1.9848,1.9872,1.9831,1.9831,1.984,1.99,1.9919,1.9925,1.9999,1.9947,1.9951,1.9954,1.9956,2.0123,2.0125,0,0,0,0,0,0,1.9696,1.9709,1.9808,1.9812,1.9745,1.9796,1.9804,1.9827,1.9872,1.9877,1.9841,1.9839,1.9912,1.992,1.9928,1.9998,1.9952,1.9956,1.9959,2.0121,2.0124,2.0125,0,0,0,0,0,0,1.9693,1.9705,1.9805,1.9761,1.9774,1.98,1.9826,1.983,1.9848,1.9879,1.9884,1.9854,1.9911,1.9921,1.9975,2.0001,1.9958,1.9962,2.0119,2.0122,2.0124,2.0141,0,0,0,0,0,0,1.969,1.9704,1.9725,1.9761,1.9776,1.985,1.9828,1.9832,1.9855,1.9854,1.9893,1.9898,1.991,1.9968,1.998,2.0007,1.9966,2.0117,2.0121,2.0124,2.0138,2.0144,2.0148,0,0,0,0,0,1.9685,1.9728,1.9726,1.9738,1.9803,1.9851,1.986,1.9872,1.9857,1.9879,1.99,1.9897,1.9997,1.9974,1.9987,2.0015,2.0116,2.012,2.0123,2.0136,2.0143,2.0148,0,0,0,0,0,0,1.9696,1.9733,1.9732,1.9787,1.9816,1.9851,1.9879,1.9879,1.9914,1.9911,1.9926,1.9935,1.9989,2.0008,1.9982,2.0074,2.0054,2.0061,2.0059,2.0066,2.0071,2.0065,1.9969,0,0,0,0,0,1.9705,1.974,1.9771,1.9817,1.9832,1.9853,1.9875,1.9881,1.9912,1.9925,1.9949,1.998,2.0019,2.0044,2.0081,2.0141,2.015,2.0167,2.0172,2.0177,2.0182,2.0215,2.0223,2.0138,2.0138,2.0138,0,0,1.9724,1.9748,1.9769,1.982,1.9843,1.988,1.9863,1.9903,1.9931,1.9931,1.9983,2.0002,2.0038,2.0096,2.0122,2.0113,2.0208,2.0182,2.0185,2.0188,2.022,2.0228,2.0235,2.0141,2.014,2.014,0,0,1.9776,1.9798,1.9839,1.9862,1.9897,1.9911,1.9921,1.9956,1.9968,2.002,2.0021,2.0056,2.0121,2.0147,2.0169,2.0232,2.0231,2.0244,2.0271,2.0303,2.031,2.0316,2.0338,2.0346,2.0249,2.0249,2.0249,0,1.9796,1.985,1.9861,1.9901,1.9923,1.9924,1.9966,1.9989,2.0034,2.005,2.004,2.0122,2.0147,2.021,2.0225,2.0243,2.0255,2.0239,2.0308,2.0314,2.032,2.0341,2.0349,2.0251,2.025,2.025,2.025,0,1.9872,1.991,1.9939,1.9981,2.0007,2.0048,2.0066,2.0092,2.0097,2.0112,2.0166,2.0195,2.0238,2.0254,2.026,2.0318,2.0312,2.0304,2.0284,2.0329,2.0349,2.0357,2.0252,2.0252,2.0252,2.0251,0,0,1.9933,1.998,1.9991,2.001,2.0049,2.0079,2.0121,2.0161,2.0183,2.0215,2.025,2.0306,2.0299,2.0324,2.0333,2.0361,2.0409,2.0351,2.0352,2.036,2.0476,2.0481,2.049,2.0409,2.0411,2.0412,2.0473,0,1.9989,2.0061,2.0072,2.0136,2.0171,2.0173,2.0209,2.0238,2.0254,2.0287,2.0306,2.0345,2.0333,2.0348,2.0376,2.0397,2.0433,2.0393,2.0443,2.0445,2.0433,2.0501,2.0506,2.0561,2.0481,2.0482,2.0483,0,2.0064,2.0096,2.0163,2.0197,2.0212,2.0244,2.0282,2.0314,2.0347,2.0357,2.0385,2.039,2.0435,2.0413,2.0476,2.0448,2.047,2.0484,2.0486,2.0491,2.0466,2.0506,2.0579,2.0587,2.0496,2.0495,2.0494,0,2.0101,2.0161,2.0209,2.0226,2.0266,2.0289,2.0307,2.0338,2.0362,2.0397,2.0412,2.0452,2.0473,2.0505,2.0521,2.0504,2.0582,2.0562,2.0592,2.0592,2.0608,2.0606,2.0684,2.0623,2.0623,2.0623,2.0622,0,2.0162,2.0203,2.0226,2.0255,2.0301,2.0315,2.0361,2.0379,2.0407,2.044,2.0445,2.0477,2.0497,2.0533,2.0546,2.0596,2.0606,2.0615,2.0618,2.0615,2.0613,2.0628,2.0625,2.0625,2.0624,2.0624,2.0623,0,2.0211,2.0228,2.028,2.0314,2.0324,2.0356,2.0386,2.0415,2.0431,2.0474,2.0485,2.0511,2.0553,2.0572,2.0625,2.0634,2.069,2.0691,2.0678,2.0679,2.0707,2.0704,2.0797,2.081,2.074,2.0741,2.0742,0,2.0248,2.0279,2.0316,2.0338,2.0357,2.0393,2.0417,2.0432,2.0457,2.0497,2.0522,2.0563,2.0597,2.0665,2.0689,2.0729,2.0731,2.076,2.0737,2.0732,2.073,2.0728,2.0731,2.0764,2.0765,2.0766,2.0766,0,2.0312,2.0319,2.0353,2.0389,2.0417,2.0448,2.0477,2.0496,2.0516,2.0544,2.0586,2.0612,2.0665,2.0707,2.0748,2.0769,2.0771,2.0773,2.0782,2.0778,2.0769,2.0774,2.0689,2.0771,2.0771,2.077,2.077,2.077,2.0356,2.0384,2.0414,2.0451,2.0475,2.0503,2.0532,2.0551,2.0586,2.0629,2.0636,2.0681,2.0714,2.077,2.0792,2.0829,2.0822,2.0835,2.0838,2.0841,2.0842,2.0764,2.0836,2.0836,2.0836,2.0836,2.0836,0,2.042,2.044,2.0474,2.0514,2.0544,2.0543,2.0576,2.0601,2.0639,2.0669,2.0703,2.0751,2.0792,2.0819,2.0861,2.0884,2.0886,2.0895,2.0893,2.0897,2.0846,2.0834,2.0892,2.0892,2.0892,2.0892,2.0892,2.0892,2.0457,2.0503,2.0514,2.0573,2.0593,2.0635,2.0654,2.068,2.0704,2.0757,2.0791,2.0808,2.0837,2.0881,2.0918,2.0925,2.094,2.0949,2.0956,2.0907,2.0901,2.0895,2.0884,2.0952,2.0952,2.1004,2.1004,2.1005]},{"header":{"parameterUnit":"m.s-1","parameterCategory":1,"la1":30.2991,"la2":30.254,"lo1":-89.0895,"lo2":-89.0444,"dy":0.0017,"dx":0.0017,"nx":28,"ny":28,"refTime":"2025-07-31T03:00:00:Z","depth":0,"parameterNumber":3,"parameterNumberName":"V-component_of_WINDS"},"data":[0,0,0,0,0,0,0,0,0,0,0,0,0,0,0,0,0,0,0,0,0,0,0,0,0,0,0,0,0,0,0,0,0,0,0,0,0,0,0,0,0,0,0,0,0,0,0,0,0,0,0,0,0,0,0,0,0,0,4.755,4.7551,0,4.7709,4.7711,4.7713,4.7739,4.7737,4.7736,4.7735,4.7886,4.7891,4.7896,0,0,0,0,0,0,0,0,0,0,0,0,0,4.7256,4.7261,4.7549,4.7551,4.7554,4.7709,4.7711,4.7713,4.7739,4.7737,4.7736,4.7734,4.7884,4.789,4.7897,0,0,0,0,0,0,0,0,0,0,0,0,0,4.7396,4.7263,4.7549,4.7585,4.759,4.7708,4.7711,4.7714,4.7739,4.7737,4.7735,4.7733,4.7882,4.789,4.7897,4.7987,0,0,4.7922,4.7925,0,0,0,0,0,0,0,0,4.7388,4.7406,4.7578,4.7583,4.7589,4.7702,4.7663,4.7805,4.774,4.7682,4.7735,4.7732,4.7825,4.7838,4.7872,4.7994,4.8,4.7922,4.7927,4.7931,4.7933,0,0,0,0,0,0,0,4.7378,4.74,4.7612,4.758,4.7587,4.759,4.7608,4.769,4.7763,4.7687,4.7689,4.7709,4.7828,4.7864,4.7876,4.8003,4.7922,4.7929,4.7934,4.7937,4.8205,4.8208,0,0,0,0,0,0,4.7364,4.7392,4.7607,4.7617,4.7482,4.7597,4.7617,4.7668,4.7762,4.7775,4.771,4.7709,4.7852,4.7866,4.7881,4.7992,4.793,4.7938,4.7942,4.8203,4.8206,4.8209,0,0,0,0,0,0,4.7357,4.7383,4.7601,4.7505,4.7533,4.7604,4.7661,4.7672,4.7708,4.778,4.7792,4.7735,4.7851,4.787,4.7961,4.7998,4.7941,4.7949,4.82,4.8204,4.8207,4.8215,0,0,0,0,0,0,4.7349,4.738,4.7417,4.7506,4.7538,4.7682,4.7663,4.7676,4.7723,4.7724,4.7806,4.7817,4.7851,4.7949,4.7969,4.8008,4.7955,4.8197,4.8202,4.8206,4.8212,4.8218,4.8224,0,0,0,0,0,4.7338,4.741,4.7419,4.7445,4.7587,4.7684,4.7702,4.7742,4.7726,4.7763,4.7809,4.7815,4.7991,4.7958,4.7981,4.8022,4.8195,4.8201,4.8206,4.8209,4.8217,4.8224,0,0,0,0,0,0,4.732,4.7423,4.7433,4.7538,4.7602,4.7688,4.7735,4.7749,4.7817,4.7813,4.7857,4.7875,4.7964,4.8002,4.7964,4.8114,4.8091,4.8101,4.8086,4.8094,4.81,4.8089,4.7961,0,0,0,0,0,4.7329,4.7403,4.7487,4.757,4.7603,4.7663,4.7707,4.7733,4.78,4.7826,4.7879,4.794,4.8009,4.8054,4.8121,4.8217,4.8235,4.8257,4.8263,4.8268,4.8275,4.8329,4.834,4.8226,4.8226,4.8226,0,0,4.7346,4.7411,4.7454,4.7568,4.7621,4.7694,4.7686,4.7762,4.7816,4.7836,4.7927,4.7968,4.8039,4.8133,4.8177,4.8168,4.8311,4.8274,4.8278,4.8283,4.8335,4.8346,4.8356,4.823,4.8229,4.8228,0,0,4.7415,4.7473,4.7549,4.7604,4.7686,4.7726,4.7744,4.7829,4.7858,4.7951,4.7968,4.803,4.8148,4.8199,4.824,4.8329,4.8337,4.8349,4.8381,4.8433,4.8442,4.845,4.8481,4.8492,4.8357,4.8357,4.8357,0,4.7425,4.7539,4.7585,4.7663,4.7711,4.7738,4.7814,4.7863,4.7961,4.7992,4.7981,4.8132,4.8181,4.8288,4.831,4.8342,4.8362,4.834,4.8437,4.8446,4.8454,4.8485,4.8496,4.8358,4.8358,4.8358,4.8358,0,4.7547,4.7625,4.7676,4.7776,4.783,4.7906,4.7961,4.8009,4.803,4.8071,4.8164,4.8225,4.8305,4.8332,4.8352,4.8442,4.8434,4.8429,4.8407,4.8465,4.8495,4.8507,4.836,4.8359,4.8359,4.8359,0,0,4.7607,4.7734,4.7752,4.7798,4.7891,4.7951,4.8026,4.811,4.8151,4.8217,4.828,4.8381,4.8379,4.8425,4.845,4.8496,4.8562,4.8486,4.8488,4.8498,4.8664,4.8667,4.868,4.8568,4.8571,4.8573,4.8658,0,4.7687,4.7829,4.7873,4.799,4.8062,4.8089,4.8155,4.8217,4.8257,4.8321,4.8363,4.8434,4.8425,4.8454,4.85,4.8545,4.8596,4.8539,4.8625,4.8627,4.8607,4.8695,4.8698,4.8776,4.867,4.8672,4.8673,0,4.7799,4.7873,4.7999,4.8085,4.8116,4.8175,4.8256,4.8318,4.8388,4.8413,4.8467,4.8489,4.8566,4.854,4.8646,4.8606,4.8643,4.867,4.8674,4.8683,4.8654,4.8706,4.8802,4.8813,4.8692,4.869,4.8689,0,4.7831,4.7961,4.8054,4.8092,4.8194,4.8235,4.8278,4.8348,4.8395,4.8464,4.8494,4.8569,4.861,4.8666,4.8706,4.8684,4.8808,4.8786,4.8829,4.8828,4.8853,4.8851,4.8956,4.8878,4.8878,4.8877,4.8877,0,4.7915,4.799,4.807,4.8126,4.8211,4.8259,4.834,4.8384,4.8446,4.8509,4.8535,4.8592,4.8643,4.8706,4.8738,4.882,4.8838,4.8858,4.8866,4.8856,4.8854,4.8881,4.8876,4.8881,4.888,4.8879,4.8879,0,4.7964,4.8021,4.8123,4.8213,4.8237,4.8296,4.837,4.8424,4.8466,4.8545,4.8566,4.863,4.8706,4.8753,4.8848,4.8869,4.896,4.8965,4.8937,4.8941,4.8981,4.8977,4.9107,4.9126,4.9036,4.9036,4.9037,0,4.8014,4.8074,4.8172,4.8219,4.8264,4.8338,4.8388,4.8437,4.8487,4.8573,4.8616,4.8695,4.8761,4.8881,4.8933,4.9006,4.9013,4.9053,4.9023,4.9012,4.9013,4.9009,4.9015,4.9058,4.9059,4.9059,4.906,0,4.8097,4.8123,4.8197,4.8281,4.8341,4.8408,4.8474,4.8509,4.8569,4.8624,4.8705,4.8756,4.8856,4.8933,4.9011,4.9051,4.9065,4.9069,4.9083,4.9074,4.9055,4.9066,4.8951,4.9066,4.9065,4.9065,4.9064,4.9064,4.8148,4.8203,4.8281,4.8362,4.8419,4.848,4.8537,4.8587,4.8657,4.8745,4.8769,4.8853,4.8921,4.9028,4.907,4.9134,4.9128,4.9148,4.9153,4.9157,4.9158,4.9046,4.9148,4.9148,4.9148,4.9148,4.9148,0,4.8232,4.8285,4.8359,4.8454,4.8517,4.853,4.8604,4.8655,4.873,4.8795,4.8861,4.8953,4.9029,4.9088,4.9164,4.9204,4.9212,4.9222,4.922,4.9229,4.9159,4.914,4.9215,4.9215,4.9215,4.9215,4.9215,4.9215,4.8283,4.8377,4.8412,4.8532,4.8583,4.867,4.8711,4.8767,4.882,4.8924,4.8988,4.9028,4.909,4.9172,4.924,4.9255,4.9282,4.9291,4.9307,4.9241,4.9233,4.9226,4.9208,4.9297,4.9297,4.9371,4.9372,4.9372]}]]